TimeMST,TemperatureF,Dew PointF,Humidity,Sea Level PressureIn,VisibilityMPH,Wind Direction,Wind SpeedMPH,Gust SpeedMPH,PrecipitationIn,Events,Conditions,WindDirDegrees,DateUTC
12:53 AM,23.0,15.1,72,29.91,10.0,WSW,5.8,-,N/A,,Clear,250,2013-02-13 07:53:00
1:53 AM,23.0,15.1,72,29.89,10.0,WSW,4.6,-,N/A,,Clear,240,2013-02-13 08:53:00
2:53 AM,23.0,16.0,74,29.87,10.0,West,6.9,-,N/A,,Partly Cloudy,280,2013-02-13 09:53:00
3:53 AM,26.1,15.1,63,29.86,10.0,West,10.4,19.6,N/A,,Clear,280,2013-02-13 10:53:00
4:53 AM,26.1,14.0,60,29.85,10.0,West,18.4,33.4,N/A,,Clear,270,2013-02-13 11:53:00
5:53 AM,24.1,12.9,62,29.85,10.0,West,12.7,-,N/A,,Clear,270,2013-02-13 12:53:00
6:53 AM,24.1,14.0,65,29.87,10.0,West,13.8,18.4,N/A,,Mostly Cloudy,270,2013-02-13 13:53:00
7:53 AM,30.0,16.0,56,29.85,10.0,West,11.5,-,N/A,,Overcast,270,2013-02-13 14:53:00
8:53 AM,33.1,18.0,54,29.84,10.0,WNW,12.7,19.6,N/A,,Overcast,290,2013-02-13 15:53:00
9:53 AM,34.0,18.0,52,29.84,10.0,NW,11.5,21.9,N/A,,Mostly Cloudy,310,2013-02-13 16:53:00
10:53 AM,36.0,18.0,48,29.82,10.0,WNW,17.3,29.9,N/A,,Mostly Cloudy,300,2013-02-13 17:53:00
11:53 AM,37.9,18.0,45,29.80,10.0,West,25.3,35.7,N/A,,Scattered Clouds,280,2013-02-13 18:53:00
12:53 PM,37.9,19.9,48,29.80,10.0,WNW,18.4,43.7,N/A,,Mostly Cloudy,290,2013-02-13 19:53:00
1:50 PM,33.8,24.8,70,29.75,1.5,WNW,20.7,41.4,0.00,Snow,Light Snow,290,2013-02-13 20:50:00
1:53 PM,30.9,25.0,79,29.84,1.0,WNW,13.8,34.5,0.00,Snow,Light Snow,290,2013-02-13 20:53:00
2:23 PM,33.8,26.6,75,29.74,3.0,West,17.3,32.2,0.00,Snow,Light Snow,270,2013-02-13 21:23:00
2:48 PM,33.8,24.8,70,29.75,1.2,WNW,19.6,34.5,0.00,Snow,Light Snow,300,2013-02-13 21:48:00
2:53 PM,30.9,27.0,85,29.84,0.2,WNW,12.7,34.5,0.00,Fog-Snow,Heavy Snow,290,2013-02-13 21:53:00
3:02 PM,30.2,26.6,86,29.76,0.5,WNW,15.0,25.3,0.00,Fog-Snow,Light Snow,300,2013-02-13 22:02:00
3:06 PM,30.2,26.6,86,29.76,2.0,WNW,13.8,25.3,0.01,Snow,Light Snow,300,2013-02-13 22:06:00
3:10 PM,30.2,26.6,86,29.76,5.0,WNW,12.7,23.0,0.01,Snow,Light Snow,300,2013-02-13 22:10:00
3:27 PM,33.8,24.8,70,29.76,10.0,WNW,17.3,29.9,0.01,,Scattered Clouds,300,2013-02-13 22:27:00
3:49 PM,32.0,23.0,69,29.78,6.0,NW,12.7,21.9,0.01,Snow,Light Snow,320,2013-02-13 22:49:00
3:53 PM,32.0,23.0,69,29.86,6.0,NW,15.0,27.6,0.01,Snow,Light Snow,320,2013-02-13 22:53:00
4:10 PM,30.2,21.2,69,29.78,10.0,NW,12.7,23.0,0.00,,Overcast,320,2013-02-13 23:10:00
4:53 PM,30.0,21.9,72,29.88,10.0,WNW,11.5,20.7,0.00,,Overcast,290,2013-02-13 23:53:00
5:53 PM,28.9,19.9,69,29.90,10.0,WNW,16.1,25.3,N/A,,Mostly Cloudy,290,2013-02-14 00:53:00
6:53 PM,28.0,19.9,72,29.94,10.0,WNW,11.5,-,N/A,,Scattered Clouds,290,2013-02-14 01:53:00
7:53 PM,27.0,19.0,72,29.94,10.0,West,10.4,-,N/A,,Mostly Cloudy,280,2013-02-14 02:53:00
8:50 PM,26.6,21.2,80,29.87,2.0,West,8.1,-,0.00,Snow,Light Snow,270,2013-02-14 03:50:00
8:53 PM,26.1,21.9,84,29.95,1.2,WNW,5.8,-,0.00,Snow,Light Snow,300,2013-02-14 03:53:00
9:01 PM,26.6,23.0,86,29.88,0.5,Variable,3.5,-,0.01,Fog-Snow,Snow,0,2013-02-14 04:01:00
9:11 PM,26.6,23.0,86,29.88,0.8,West,6.9,-,0.02,Snow,Light Snow,270,2013-02-14 04:11:00
9:16 PM,26.6,21.2,80,29.87,1.0,Calm,Calm,-,0.02,Snow,Light Snow,0,2013-02-14 04:16:00
9:21 PM,24.8,21.2,86,29.88,3.0,West,4.6,-,0.02,Snow,Light Snow,280,2013-02-14 04:21:00
9:27 PM,26.6,19.4,74,29.87,9.0,Variable,6.9,16.1,0.02,,Mostly Cloudy,0,2013-02-14 04:27:00
9:53 PM,25.0,12.0,58,29.95,10.0,Variable,4.6,-,0.02,,Partly Cloudy,0,2013-02-14 04:53:00
10:53 PM,23.0,10.0,58,29.96,10.0,NW,5.8,-,N/A,,Clear,320,2013-02-14 05:53:00
11:53 PM,21.0,9.0,60,29.99,10.0,NW,4.6,-,N/A,,Clear,310,2013-02-14 06:53:00